Location: Newark
(7.0858°N, 171.3717°E)
Time: 16:33:14
(UTC+00:00)

Altair - Pass Details

Date: 05 December 2020
Orbit: 1501 x 1682 km, 47.2° (Epoch: 20 January)

Event Time Altitude Azimuth Distance (km) Brightness Sun altitude
Exits shadow 14:34:36 21° 94° (E) 2,944 9.2 -55.3°
Drops below altitude 10° 14:37:45 10° 108° (ESE) 3,735 9.9 -54.6°
Sets 14:41:15 0° 117° (ESE) 4,746 10.6 -53.9°
